Regional Weather Roundup
Issued by NWS

Home | Current Version | Previous Version | Text Only | Print | Product List | Glossary Off
Versions: 1 2 3 4 5 6 7 8 9 10 11 12 13 14 15 16 17 18 19 20 21 22 23 24 25 26 27 28 29 30 31 32 33 34 35 36 37 38 39 40 41 42 43 44 45 46 47 48 49 50

000
ASUS43 KOAX 061610
RWRNE

WEATHER ROUNDUP FOR NEBRASKA
NATIONAL WEATHER SERVICE OMAHA NE
1000 AM CST SAT FEB 06 2016

NOTES: SATELLITE DATA IS BEING USED TO AUGMENT CLOUD COVER ABOVE
       12000 FEET.
       "FAIR" INDICATES FEW OR NO CLOUDS BELOW 12,000 FEET WITH NO
       SIGNIFICANT WEATHER AND/OR OBSTRUCTIONS TO VISIBILITY.

  * THESE STATIONS DO NOT REPORT WEATHER SUCH AS RAIN...SNOW OR FOG.

NEZ001>004-019>022-054>056-061700-
NEBRASKA PANHANDLE

CITY           SKY/WX    TMP DP  RH WIND       PRES   REMARKS
SCOTTSBLUFF    CLOUDY    28  18  66 N6        30.15F WCI  22
ALLIANCE       CLOUDY    27  19  72 W17       30.10F WCI  14
CHADRON        CLOUDY    31  20  63 W8        30.11F WCI  23
KIMBALL        CLOUDY    29  19  66 W10       30.17R WCI  20
SIDNEY         CLOUDY    28  18  66 NW14      30.16S WCI  17
$$

NEZ057>060-069>072-079>082-061700-
SOUTHWEST NEBRASKA

CITY           SKY/WX    TMP DP  RH WIND       PRES   REMARKS
NORTH PLATTE   CLOUDY    19  12  74 NW5       30.18S WCI  12
IMPERIAL       CLOUDY    23  12  62 W12       30.20S WCI  12
LEXINGTON      CLOUDY   N/A N/A N/A CALM      30.19F
MCCOOK         CLOUDY    21  11  65 W13       30.23S WCI   9
OGALLALA       CLOUDY    18   9  67 W15       30.18S WCI   3
$$

NEZ005>010-023>029-035>040-094-061700-
NORTH CENTRAL NEBRASKA

CITY           SKY/WX    TMP DP  RH WIND       PRES   REMARKS
VALENTINE      CLOUDY    34  22  61 W15       30.06F WCI  24
AINSWORTH      SUNNY     33  22  65 W15       30.06F WCI  23
BROKEN BOW     CLOUDY    22  16  78 S3        30.13F
O`NEILL        MOSUNNY   28  19  70 SW7       30.08F WCI  21
ORD            CLOUDY    22  18  85 S6        30.14F WCI  14
THEDFORD       MOSUNNY   36  24  62 W13       30.10F WCI  27
$$

NEZ041-046>049-061>064-073>077-083>087-061700-
SOUTH CENTRAL NEBRASKA

CITY           SKY/WX    TMP DP  RH WIND       PRES   REMARKS
GRAND ISLAND   CLOUDY    25  17  72 SW14      30.20S WCI  13
AURORA         SUNNY     23  19  87 SW9       30.20F WCI  13
HASTINGS       CLOUDY    21  14  74 SW7       30.21S WCI  12
HEBRON         SUNNY     24  20  82 SW5       30.27S WCI  19
HOLDREGE       CLOUDY    22  14  70 W8        30.21S WCI  13
YORK           SUNNY     23  23 100 SW12      30.22S WCI  12
$$

NEZ011>018-030>034-042>045-061700-
NORTHEAST NEBRASKA

CITY           SKY/WX    TMP DP  RH WIND       PRES   REMARKS
NORFOLK        CLOUDY    26  22  84 S6        30.15S WCI  19
ALBION         MOSUNNY   25  20  80 CALM      30.16S
BLAIR          PTSUNNY   25  24  96 S5        30.20F FOG     WCI  19
COLUMBUS *     SUNNY     27  18  69 SW7       30.20S WCI  19
FREMONT        CLOUDY    26  25  97 SW6       30.21S WCI  19
TEKAMAH        SUNNY     20  17  88 S7        30.21S WCI  11
WAYNE          SUNNY     26  25  95 SW10      30.15S WCI  17
$$

NEZ050>053-065>068-078-088>093-061700-
SOUTHEAST NEBRASKA

CITY           SKY/WX    TMP DP  RH WIND       PRES   REMARKS
LINCOLN        SUNNY     23  21  92 S6        30.25F WCI  16
OMAHA EPPLEY   FOG       26  25  96 SE8       30.24S VSB 3/4 WCI  18
BEATRICE       SUNNY     29  25  86 SW8       30.27S WCI  21
FALLS CITY     SUNNY     35  31  85 SW7       30.28F WCI  29
NEBRASKA CITY  SUNNY     29  29 100 SW7       30.26S WCI  22
PLATTSMOUTH    SUNNY     28  28  97 S6        30.23F WCI  22
$$

NEZ044-045-051>053-067-061700-
OMAHA AREA

CITY           SKY/WX    TMP DP  RH WIND       PRES   REMARKS
OMAHA EPPLEY   FOG       26  25  96 SE8       30.24S VSB 3/4 WCI  18
BLAIR          PTSUNNY   25  24  96 S5        30.20F FOG     WCI  19
FREMONT        CLOUDY    26  25  97 SW6       30.21S WCI  19
MILLARD        SUNNY    N/A N/A N/A CALM      30.23F
OFFUTT AFB     SUNNY     23  23 100 CALM      30.24S FOG
PLATTSMOUTH    SUNNY     28  28  97 S6        30.23F WCI  22
WAHOO          FAIR     N/A N/A N/A SW7       30.22F
$$



USA.gov is the U.S. government's official web portal to all federal, state and local government web resources and services.